STARLINK-33695, 63478

Orbit data source: Space-Track

STARLINK-33695, 63478 is a payload satellite owned by SpaceX/Seattle (US) in LEO that was launched on Sun, 06 Apr 2025 UTC via an FALCON 9 launch vehicle from the Air Force Eastern Test Range (AFETR). Payload-class satellites include a variety of spacecraft equipped with specific instruments for various scientific and technological missions. These include communications satellites like Starlink; space stations such as the ISS; scientific satellites like the Hubble; Earth observation satellites from companies like Planet Labs, Umbra, and HawkEye 360; GPS; miniature CubeSats for education and research; and military/defense satellites.

Loading next visibility...
Identifier
63478, 2025-070U
Orbit
LEO
Country
Flag of USUS
Related business
Manufacturer
SpaceX/Seattle
Mission
Operational Commercial Communications
Bus & Motor
STARLINK V2MO, Unknown motor
Mass
575 kg wet, ~530 kg dry
Launch date (UTC)
2025-04-06 (1 year ago)
Launch vehicle
FALCON 9
Launch site
Air Force Eastern Test Range (AFETR)
Object type
Payload
Rocket body
Debris
Shape & HBR
Box + 2 Pan, 17.7 m
Radar Cross Section
36.964 m², Large (>1 m²)

Expand to show TLE details & history
Last TLE update: 19 hours ago

TLE from 19 hours ago
0 STARLINK-33695
1 63478U 25070U   26169.34583647  .00007394  00000-0  27789-3 0  9995
2 63478  43.0016  47.5874 0001413 269.7767  90.2923 15.27585068 68413
Epoch: 2026-06-18T08:18Z
TLE epoch observation values (Epoch: 2026-06-18T08:18:00.271Z)
Latitude
-0.00002°
Longitude
16.49576°
Altitude
482.815 km
Speed
7.626 km/s
True Right ascension
03h 10m 20s
True Declination
0° 00' 00"
Sunlit
Object was in daylight at epoch
Visualization orbit readout
Latitude
Unknown
Longitude
Unknown
Altitude
Unknown
Speed
Unknown
Apparent Right ascension
Unknown
Apparent Declination
Unknown
Sunlit
N/A
Visualization observer readout
Local Sidereal Time
14:05:50
Azimuth
Unknown
Elevation
Unknown
Doppler factor
Unknown
Orbital elements
Apogee altitude
485.949 km
Perigee altitude
484.009 km
Semi-major axis
6,863.116 km
Eccentricity
0.00014
Inclination
43.0016°
RAAN
47.5874°
Arg. of periapsis
269.7767°
True anomaly
90.30849°
Mean anomaly
90.2923°
Eccentric anomaly
90.3004°
Mean motion
3.81734 °/min
Orbital period
94.31 mins
BSTAR
0.00027789
Loading maneuver chart data...
Computing Atmospheric mass density...
Loading historical data...
Loading historical data...
Loading historical data...
Loading historical data...
Loading historical data...
Loading historical data...
Loading historical data...

Documentation

Showing up to 5 results
|